Temp
14 15 14 15 15 15 15 15 15 14 14 15 15 15 15 16 16 17 17 17 17 17 16 16 16 16 17 17 17 18 12 11 15 17 17 19 18 21 21 22 22 24 24 24 23
15 16 15 15 15 15 15 15 15 14 14 14 14 15 16 16 16 16 17 17 17 17 17 17 17 17 17 17 17 14 10 13 14 18 17 18 18 19 20 21 21 23 24 24 24
15 16 16 16 15 15 15 15 15 14 14 13 14 14 15 15 15 16 17 17 17 17 17 16 17 17 17 17 17 15 13 14 17 18 18 17 18 20 19 19 21 22 23 23 23
15 16 16 16 16 16 15 15 14 14 14 14 15 15 15 14 15 16 16 16 16 17 17 16 17 17 15 15 16 15 16 16 17 18 17 16 19 18 20 20 21 21 22 22 22
15 16 16 15 16 16 15 15 15 14 14 14 14 15 15 16 16 17 16 16 17 17 17 17 16 16 14 14 15 15 16 16 17 17 17 17 16 17 18 21 21 21 21 22 23
15 16 16 15 15 14 14 14 15 14 14 15 15 15 15 15 16 16 17 17 17 17 17 17 17 17 15 15 14 16 15 15 16 17 16 16 16 17 19 21 21 21 20 21 23
15 16 16 15 15 14 14 14 14 14 14 14 14 14 15 16 16 16 17 17 16 16 16 16 17 17 16 14 16 16 13 12 14 16 15 17 15 16 20 20 19 20 21 20 21
15 16 16 15 15 14 14 14 15 14 14 14 14 14 16 16 16 16 17 17 17 17 16 17 17 17 16 16 14 12 12 11 13 15 16 16 14 16 20 19 19 19 20 20 20
15 16 15 15 14 14 15 15 14 14 14 13 14 14 16 16 17 17 17 17 17 17 17 17 16 16 15 12 10 10 10 11 12 15 14 15 15 16 18 18 17 18 19 19 20
15 16 16 15 15 14 14 15 13 14 14 14 14 15 16 17 17 17 17 17 17 17 17 16 16 11 9 9 9 11 10 10 12 15 14 13 13 15 17 16 16 17 17 19 19
16 16 16 15 14 14 14 14 14 15 14 14 15 14 16 17 17 17 17 17 17 16 14 14 11 11 11 11 12 12 12 11 13 14 13 14 13 15 15 15 14 16 17 18 19
16 16 15 15 14 14 14 13 13 13 13 16 16 16 17 16 16 17 17 17 16 14 13 12 10 12 12 12 12 12 11 12 13 14 13 14 14 15 14 14 16 16 17 17 18
16 16 15 15 15 14 13 13 13 13 12 16 16 16 16 15 16 16 16 16 14 13 13 11 12 14 13 13 13 13 12 13 12 14 13 12 13 14 15 15 16 16 17 17 17
16 16 16 15 15 15 14 14 13 13 10 14 15 15 15 15 15 15 15 16 15 13 12 12 13 14 12 12 12 11 13 13 13 12 11 12 11 14 14 12 13 14 15 15 16
16 16 16 15 15 14 14 14 14 14 10 14 14 14 14 13 14 14 14 15 13 13 14 11 13 12 11 12 13 11 12 12 12 11 10 10 9 14 13 13 14 13 14 15 15
16 16 15 15 15 14 14 14 14 10 11 12 14 13 12 13 13 13 13 13 13 12 12 12 13 12 12 13 13 12 11 10 9 8 8 10 9 13 11 11 12 12 15 16 16
15 16 15 14 14 15 15 14 9 8 12 12 11 11 12 11 12 12 11 9 9 8 8 9 11 13 12 10 11 11 8 6 7 7 9 10 8 12 13 13 14 14 14 15 15
15 15 15 15 16 16 15 9 9 12 11 12 12 11 12 11 11 10 10 8 9 9 7 6 8 11 11 10 9 9 8 5 7 8 8 10 9 11 12 13 16 15 15 14 14
15 15 15 15 15 15 15 6 9 11 12 12 11 11 10 11 11 9 9 9 9 8 7 6 8 11 11 10 10 9 7 9 8 9 7 9 10 11 12 13 12 12 13 13 13
14 15 14 15 15 15 8 10 11 12 14 13 10 11 9 10 9 8 9 11 9 9 9 7 6 10 11 10 11 10 10 6 5 7 8 9 10 11 12 13 13 11 10 12 13
14 14 13 14 14 13 5 9 12 14 13 12 11 10 10 9 9 8 9 10 9 9 8 7 7 9 9 8 9 9 8 8 7 7 8 8 9 11 11 10 9 10 11 11 11
11 10 13 14 10 6 7 9 12 13 14 13 12 11 10 9 8 8 8 9 11 9 8 7 6 7 8 10 10 9 9 8 6 7 8 6 8 13 13 11 8 7 8 9 10
10 10 12 12 6 4 7 9 11 12 12 12 12 11 10 9 6 8 8 10 11 8 9 7 6 7 9 9 9 8 9 7 6 6 7 7 8 12 12 11 9 7 7 7 8
9 5 10 10 9 7 6 7 9 12 12 11 10 11 9 8 6 6 8 9 10 9 10 9 5 7 7 9 9 8 7 8 6 6 7 7 7 9 9 8 8 7 6 7 6
9 7 8 4 6 5 6 6 9 9 11 11 9 9 7 2 5 6 8 8 8 9 8 7 6 6 7 8 8 7 7 8 7 6 6 6 4 6 7 6 5 5 6 6 5
8 7 7 6 6 6 6 8 8 8 9 8 8 7 7 3 5 6 6 6 5 6 6 6 6 6 6 7 7 7 8 7 5 5 4 5 5 7 5 4 4 4 4 4 4
6 6 6 6 5 5 6 7 7 7 8 9 8 6 6 6 8 8 7 7 5 6 6 6 5 5 8 7 6 5 3 4 4 4 4 3 4 2 2 3 3 3 3 2 2
Height
1513 1509 1506 1503 1501 1499 1497 1495 1493 1492 1491 1490 1489 1488 1488 1486 1484 1485 1485 1487 1485 1484 1484 1484 1486 1486 1488 1490 1492 1493 1504 1511 1500 1495 1488 1481 1482 1480 1481 1479 1479 1480 1481 1479 1473
1513 1508 1505 1502 1500 1498 1496 1495 1494 1493 1492 1490 1489 1489 1488 1486 1485 1486 1488 1487 1486 1484 1485 1485 1486 1487 1489 1491 1492 1493 1507 1503 1492 1489 1487 1481 1481 1478 1480 1478 1477 1474 1477 1477 1475
1513 1508 1504 1501 1499 1497 1496 1494 1494 1493 1492 1491 1489 1489 1488 1487 1488 1489 1489 1489 1488 1487 1487 1488 1488 1488 1489 1491 1490 1491 1498 1491 1488 1486 1486 1483 1478 1476 1474 1475 1475 1474 1468 1474 1474
1515 1509 1503 1499 1498 1497 1495 1494 1493 1492 1492 1490 1489 1487 1487 1487 1493 1490 1489 1489 1489 1489 1490 1490 1489 1490 1491 1493 1491 1493 1489 1489 1488 1486 1484 1482 1478 1474 1472 1472 1472 1471 1469 1467 1473
1517 1510 1505 1501 1498 1496 1494 1493 1492 1491 1490 1488 1488 1487 1487 1488 1490 1489 1490 1490 1490 1491 1491 1492 1492 1493 1495 1494 1491 1490 1488 1486 1485 1484 1481 1478 1476 1473 1468 1467 1468 1467 1466 1463 1463
1517 1511 1507 1503 1500 1498 1496 1494 1493 1491 1490 1489 1487 1486 1486 1488 1490 1491 1491 1491 1492 1493 1493 1493 1493 1493 1493 1493 1494 1490 1488 1485 1482 1479 1477 1475 1471 1471 1466 1464 1462 1462 1461 1460 1458
1517 1511 1507 1504 1502 1500 1498 1495 1493 1491 1490 1489 1488 1487 1487 1491 1491 1492 1492 1492 1492 1492 1492 1493 1493 1493 1493 1491 1489 1488 1488 1482 1476 1474 1473 1470 1469 1468 1463 1461 1458 1455 1454 1454 1453
1518 1511 1507 1505 1502 1501 1498 1495 1491 1490 1490 1489 1488 1488 1489 1491 1492 1492 1492 1492 1492 1492 1492 1493 1493 1492 1491 1490 1489 1491 1489 1495 1478 1473 1469 1470 1472 1461 1459 1457 1455 1451 1449 1449 1448
1517 1511 1508 1505 1503 1501 1498 1495 1492 1491 1491 1489 1490 1490 1491 1492 1492 1491 1491 1492 1492 1492 1491 1492 1491 1491 1491 1495 1502 1499 1503 1494 1482 1472 1470 1469 1463 1457 1455 1453 1451 1449 1447 1443 1442
1518 1512 1508 1504 1503 1501 1498 1495 1493 1492 1492 1491 1491 1493 1493 1493 1492 1491 1491 1492 1492 1491 1491 1491 1490 1493 1496 1501 1512 1501 1502 1494 1485 1471 1469 1467 1459 1453 1450 1448 1446 1444 1442 1439 1436
1518 1512 1508 1503 1503 1501 1498 1496 1496 1496 1493 1495 1496 1495 1495 1494 1492 1491 1491 1491 1491 1491 1492 1490 1496 1500 1492 1490 1489 1490 1489 1487 1475 1468 1470 1462 1456 1444 1443 1444 1442 1439 1437 1433 1431
1517 1512 1508 1505 1504 1502 1499 1498 1501 1503 1498 1495 1496 1496 1496 1495 1493 1491 1492 1492 1490 1491 1490 1495 1498 1486 1484 1484 1484 1484 1486 1480 1465 1464 1465 1459 1446 1436 1440 1438 1434 1431 1428 1426 1425
1517 1513 1509 1505 1504 1503 1501 1501 1500 1501 1501 1498 1498 1499 1498 1496 1492 1492 1491 1487 1484 1487 1487 1493 1485 1480 1482 1483 1482 1479 1481 1473 1470 1459 1457 1458 1441 1438 1430 1429 1425 1422 1421 1419 1418
1519 1515 1511 1507 1507 1503 1502 1501 1500 1500 1508 1505 1501 1501 1498 1492 1492 1493 1490 1487 1483 1484 1483 1485 1479 1480 1480 1481 1478 1480 1470 1466 1464 1466 1465 1458 1456 1416 1425 1425 1423 1418 1414 1411 1411
1521 1517 1512 1508 1508 1505 1503 1499 1499 1500 1530 1508 1505 1504 1501 1502 1499 1493 1492 1485 1486 1484 1483 1486 1480 1481 1481 1477 1472 1474 1467 1465 1462 1462 1462 1462 1472 1395 1421 1421 1416 1410 1408 1406 1404
1520 1517 1514 1510 1507 1504 1500 1496 1499 1513 1526 1513 1508 1506 1503 1500 1497 1494 1491 1488 1484 1483 1482 1481 1475 1474 1472 1470 1468 1468 1466 1462 1462 1464 1467 1452 1459 1398 1426 1420 1412 1406 1405 1403 1401
1520 1517 1513 1510 1506 1502 1499 1498 1513 1530 1517 1517 1512 1508 1505 1504 1499 1497 1495 1494 1496 1497 1494 1484 1474 1470 1470 1473 1468 1467 1472 1483 1471 1472 1452 1439 1449 1413 1412 1410 1406 1402 1400 1400 1399
1519 1517 1514 1509 1505 1501 1497 1501 1526 1518 1518 1511 1509 1507 1507 1504 1501 1499 1497 1500 1496 1497 1500 1498 1485 1473 1470 1474 1477 1472 1474 1490 1475 1463 1455 1441 1435 1413 1404 1400 1396 1395 1395 1397 1397
1518 1516 1513 1509 1505 1501 1499 1524 1525 1519 1513 1512 1510 1509 1509 1505 1503 1502 1500 1499 1498 1497 1504 1501 1485 1470 1470 1467 1470 1470 1475 1465 1467 1453 1455 1435 1415 1405 1398 1395 1392 1392 1394 1395 1393
1517 1515 1513 1510 1506 1503 1506 1518 1516 1512 1509 1509 1515 1510 1512 1506 1506 1505 1499 1493 1496 1495 1494 1496 1488 1468 1466 1466 1458 1463 1464 1478 1474 1457 1441 1424 1417 1408 1399 1393 1392 1395 1395 1391 1389
1517 1514 1514 1511 1508 1506 1524 1520 1513 1509 1507 1509 1510 1510 1509 1508 1506 1505 1500 1492 1491 1491 1491 1492 1492 1474 1471 1466 1461 1461 1464 1464 1460 1454 1439 1427 1414 1406 1401 1398 1397 1395 1393 1391 1388
1519 1518 1515 1511 1511 1519 1523 1519 1514 1509 1507 1506 1505 1505 1505 1504 1505 1504 1499 1492 1487 1488 1489 1488 1488 1476 1467 1450 1450 1452 1452 1458 1456 1444 1439 1440 1406 1395 1395 1399 1399 1396 1395 1391 1385
1524 1521 1519 1515 1526 1527 1521 1518 1514 1511 1508 1506 1505 1502 1500 1503 1511 1499 1493 1485 1484 1486 1484 1485 1483 1473 1456 1453 1449 1452 1448 1451 1451 1446 1433 1431 1408 1389 1389 1393 1396 1394 1390 1388 1383
1530 1528 1522 1520 1525 1526 1526 1522 1517 1511 1508 1507 1504 1501 1501 1500 1499 1495 1487 1482 1480 1479 1478 1478 1478 1471 1465 1453 1448 1449 1445 1442 1444 1434 1420 1417 1401 1400 1396 1395 1391 1388 1387 1382 1379
1533 1533 1533 1530 1525 1526 1525 1521 1517 1515 1510 1508 1505 1505 1506 1513 1497 1489 1481 1479 1476 1469 1471 1471 1469 1467 1457 1450 1445 1438 1433 1430 1432 1426 1421 1412 1416 1404 1398 1394 1392 1388 1382 1377 1372
1536 1536 1533 1529 1526 1524 1521 1517 1518 1514 1512 1509 1507 1502 1500 1503 1496 1486 1483 1478 1480 1470 1469 1469 1466 1459 1450 1442 1437 1429 1423 1425 1430 1430 1425 1414 1403 1400 1397 1393 1390 1384 1378 1371 1365
1537 1536 1535 1528 1525 1525 1521 1518 1517 1516 1507 1504 1503 1501 1496 1491 1484 1475 1472 1466 1470 1470 1470 1468 1467 1463 1437 1438 1433 1431 1434 1432 1432 1426 1423 1411 1402 1402 1396 1390 1383 1375 1369 1362 1355
Wind_Speed
33 27 22 18 14 10 8 7 5 5 6 7 8 8 7 8 7 2 9 9 7 5 4 5 7 2 2 3 4 2 3 2 4 2 6 15 7 17 13 18 18 12 9 17 23
34 29 25 21 17 13 10 6 4 4 6 8 9 8 9 10 4 6 8 12 11 8 4 5 4 4 1 1 3 4 3 7 7 4 7 17 15 28 10 20 12 16 25 18 19
36 30 27 23 17 15 13 10 7 5 4 5 8 7 8 7 6 6 6 8 7 9 9 7 6 4 1 1 3 2 4 5 10 20 18 8 20 27 11 5 13 18 26 18 15
36 31 26 22 18 16 15 12 10 8 7 6 6 6 6 3 4 5 5 6 6 7 9 8 11 4 3 4 4 3 7 2 9 17 13 6 14 10 16 8 20 17 21 24 14
37 31 23 18 16 17 16 13 13 13 13 9 6 6 4 4 8 13 11 12 12 11 12 10 9 4 2 4 11 2 3 16 24 18 20 17 10 13 19 24 24 24 21 26 26
40 30 20 16 15 15 15 13 12 15 13 11 8 7 5 6 11 8 8 7 5 7 7 9 6 9 1 2 1 7 9 17 13 21 16 8 8 9 20 24 28 28 25 27 30
41 30 18 15 13 13 14 13 15 12 9 10 9 8 7 7 7 1 3 6 7 6 8 8 9 9 9 7 5 12 7 9 9 9 5 8 6 5 19 28 27 29 31 30 32
42 29 17 15 13 12 14 12 16 4 9 10 8 6 6 5 3 3 2 1 4 6 3 6 7 10 4 7 8 6 3 5 6 6 11 1 8 9 20 17 26 29 33 36 30
41 28 17 14 11 12 15 10 9 8 19 7 5 5 4 4 9 5 6 5 5 7 4 7 9 3 1 3 5 5 6 6 10 4 6 2 16 6 23 21 16 22 30 36 37
40 25 19 16 8 11 19 9 6 3 17 5 7 3 2 6 10 8 9 10 9 8 8 4 1 2 3 4 4 8 7 8 12 11 15 14 17 12 17 15 19 27 28 31 37
41 23 22 14 9 12 20 3 10 2 9 4 6 3 6 9 9 6 8 14 13 9 3 7 2 6 11 7 8 7 9 12 14 15 6 15 15 19 15 15 16 23 29 35 40
41 21 21 9 11 15 18 15 10 6 7 7 5 7 12 9 8 11 3 5 3 6 1 4 6 11 6 7 7 6 9 14 18 10 6 13 23 21 8 9 24 29 32 34 36
38 21 21 6 9 18 19 16 8 7 1 5 8 17 12 11 6 9 18 13 10 4 8 8 8 2 5 8 12 12 9 14 18 16 5 6 21 12 13 16 26 30 33 34 35
32 24 20 17 8 21 19 14 5 5 4 9 9 10 19 13 2 13 21 6 3 6 5 6 5 3 8 6 8 11 11 14 12 10 14 6 16 29 10 7 7 21 28 33 38
28 22 21 22 19 21 21 11 1 2 4 9 6 8 16 18 9 17 21 10 4 5 1 7 3 7 7 7 5 5 10 7 11 12 7 2 2 25 3 15 19 15 19 21 23
27 13 24 24 24 24 25 1 7 5 1 5 4 8 7 14 6 14 19 15 2 4 4 5 10 5 6 3 1 7 5 8 2 1 6 8 11 28 5 7 6 6 7 6 6
26 9 21 23 24 19 18 5 5 6 4 6 5 6 3 7 5 7 11 6 4 6 5 6 4 2 6 5 7 13 5 4 3 1 8 4 7 18 6 12 17 16 14 9 3
24 8 22 21 17 14 15 5 8 3 2 5 4 7 3 7 6 6 8 5 5 2 3 5 6 5 9 4 6 11 5 3 5 4 7 8 8 8 10 15 26 19 11 8 6
22 5 24 19 16 14 4 6 5 4 4 3 7 2 3 5 3 6 5 1 2 2 2 4 5 11 21 13 2 3 3 5 9 15 10 8 11 9 10 13 7 7 3 5 11
24 3 21 21 12 9 6 3 3 4 3 2 1 1 4 6 4 6 4 1 4 5 5 4 10 6 3 11 10 7 3 3 2 5 7 5 7 7 10 8 3 6 9 18 19
18 3 16 22 10 11 4 2 3 5 3 4 3 4 5 4 2 3 5 6 4 3 7 3 6 7 8 5 7 4 2 5 4 4 5 8 2 6 6 8 8 8 20 22 21
14 3 16 24 9 4 2 4 7 5 5 3 3 4 5 4 4 4 6 7 7 1 5 4 4 7 13 22 16 11 10 4 3 5 5 5 16 17 21 6 7 9 16 23 24
16 6 10 17 4 4 7 4 3 4 4 2 3 4 1 2 3 5 7 10 13 6 4 5 4 5 6 4 4 2 4 8 7 4 18 13 9 13 15 15 9 9 18 27 26
9 4 6 7 4 3 4 4 5 9 5 13 9 4 5 4 6 7 10 5 6 10 19 9 5 9 12 18 12 20 19 18 15 7 15 14 25 18 15 13 16 20 26 24 23
8 2 3 4 2 4 4 3 4 4 5 14 4 5 5 3 6 7 7 11 13 21 5 6 6 8 16 21 22 24 27 23 19 14 7 9 17 19 17 13 13 24 27 24 29
5 5 5 10 10 4 2 1 2 4 3 6 4 11 6 6 9 16 15 13 6 5 5 1 4 5 18 19 17 21 21 11 7 9 12 17 23 16 21 24 22 23 27 30 33
6 6 6 6 3 1 3 1 6 10 11 8 8 7 6 9 16 33 31 32 13 6 4 3 2 3 8 9 16 6 2 4 8 12 14 17 18 10 18 19 21 28 30 33 37
Wind_Direction
11 12 14 14 13 6 356 348 336 331 328 330 336 355 360 352 344 80 54 49 41 30 73 60 65 103 183 178 188 126 59 232 254 194 274 310 333 304 305 294 316 309 326 345 1
10 10 9 11 15 16 13 10 357 326 321 325 329 337 348 358 40 123 72 42 38 31 80 32 50 62 106 65 185 129 141 218 210 250 283 295 299 300 305 310 313 310 315 325 333
10 7 3 8 18 24 28 26 25 13 346 334 322 325 339 355 96 121 46 24 43 71 66 31 23 17 354 243 231 143 195 233 274 280 293 278 296 299 285 289 292 305 310 326 326
10 6 3 6 14 20 22 25 30 27 7 350 337 339 341 49 103 92 25 42 50 96 49 33 14 30 354 336 338 294 259 310 322 317 313 297 304 300 287 281 308 307 308 307 312
11 8 8 12 12 9 13 19 23 19 14 10 4 9 43 89 110 68 82 73 63 51 30 13 48 33 9 318 337 215 324 325 314 306 304 297 269 272 291 309 308 307 303 299 298
11 11 16 17 14 14 14 13 7 1 7 19 27 30 63 80 119 80 70 56 43 22 20 15 346 346 178 306 164 303 295 295 299 297 285 261 264 291 296 310 307 309 305 304 299
10 10 20 22 19 23 11 4 346 336 2 15 19 22 82 109 149 74 32 13 356 317 309 340 330 324 322 322 323 307 324 321 293 289 285 305 311 268 303 315 316 322 322 318 304
9 10 19 21 30 30 15 359 355 14 30 356 9 35 88 87 14 311 214 149 338 337 308 306 295 310 270 287 338 350 13 346 279 322 287 129 282 280 307 311 312 312 312 314 313
7 10 16 15 31 28 11 360 36 91 14 20 49 34 89 77 13 340 246 277 315 347 321 316 311 283 285 58 356 355 271 278 304 264 270 216 291 261 297 299 299 304 308 310 308
4 8 3 357 26 24 14 21 57 15 357 44 36 48 67 332 343 342 255 260 290 304 293 271 328 53 24 79 269 278 273 267 277 293 296 283 273 275 279 274 279 292 294 298 296
1 7 6 4 32 18 17 71 25 11 17 13 322 318 357 346 346 335 278 250 261 270 252 312 54 260 258 230 226 252 270 263 276 280 270 275 273 284 268 282 284 277 286 289 286
360 12 10 32 35 16 27 47 23 354 325 15 41 17 28 334 305 342 318 244 224 238 107 350 253 258 244 252 253 255 268 282 282 253 241 292 286 277 277 259 264 270 274 273 272
2 17 19 18 12 25 31 22 10 352 93 349 48 27 10 339 278 356 1 317 224 233 240 217 242 243 272 291 294 287 271 288 276 297 265 308 284 282 274 258 267 261 264 266 265
5 18 23 33 21 13 19 13 8 7 70 352 358 22 6 352 358 356 5 329 328 231 241 230 277 337 313 283 267 280 272 282 286 293 286 155 288 293 260 277 267 268 268 260 266
5 29 26 25 14 6 349 335 277 5 68 330 0 349 358 29 319 347 3 343 322 285 27 261 304 312 276 256 306 268 310 297 282 264 283 146 237 276 9 289 280 279 267 280 275
358 17 15 10 6 354 352 14 133 48 81 335 330 329 359 4 4 345 356 358 311 333 347 248 258 226 218 277 104 289 323 299 307 131 252 207 198 275 219 222 265 270 276 290 287
357 18 9 1 349 350 354 132 42 79 338 321 300 329 310 356 341 5 348 11 17 0 340 315 293 295 57 339 323 345 7 315 301 243 249 214 211 252 262 260 260 272 275 229 274
358 35 16 6 357 356 347 64 70 265 246 254 282 317 8 13 321 334 346 345 32 32 279 338 321 7 338 311 273 280 186 206 274 268 280 329 256 256 231 254 260 263 244 204 310
360 53 15 2 9 354 21 54 175 226 237 274 324 325 291 321 261 356 321 266 67 33 74 316 254 307 300 293 113 311 281 227 273 271 265 230 263 295 262 270 264 187 198 315 334
354 284 12 8 354 357 67 143 211 228 260 160 343 299 291 306 339 6 313 238 182 187 144 280 294 276 331 325 281 188 249 333 316 279 270 245 267 254 279 267 271 15 345 345 338
357 18 354 352 329 47 93 257 297 335 305 182 226 267 253 306 246 261 252 292 203 225 190 230 218 277 321 218 256 260 247 238 218 237 288 297 253 326 14 35 19 348 337 328 323
360 20 354 3 47 34 30 305 309 302 318 275 227 232 235 279 273 245 235 216 239 224 285 209 260 276 274 274 274 245 251 241 244 253 251 279 280 239 267 35 9 335 324 322 320
345 321 355 22 65 348 317 303 278 316 299 321 272 239 235 256 337 224 241 249 259 184 236 169 240 292 298 351 48 16 227 213 239 245 263 264 257 303 331 310 321 307 320 313 310
353 357 344 28 64 97 343 285 315 323 304 348 272 291 349 292 214 272 271 295 295 246 277 248 220 232 261 267 282 283 268 267 267 267 281 260 282 293 303 313 308 313 313 300 303
13 356 2 310 326 328 197 257 305 334 306 321 317 347 292 281 291 245 258 297 295 285 266 178 259 237 252 268 275 273 276 279 274 277 275 316 301 294 294 301 308 304 301 299 299
11 356 317 290 290 312 328 284 285 303 245 288 293 306 273 221 220 286 302 296 240 312 188 161 271 281 287 267 265 271 274 271 283 306 276 279 284 291 327 321 312 302 293 290 288
335 325 290 283 288 330 243 206 303 308 300 268 310 288 280 262 284 284 279 272 242 237 202 234 264 289 288 339 306 296 123 110 298 279 293 289 302 331 317 309 302 295 286 282 280